Location: Costa Valle Imagna
(45.8000°N, 9.5000°E)
Time: 07:34:42
(UTC+00:00)

Daily predictions for brighter satellites

Satellite Brightness Start Highest point End
(mag) Time Altitude Azimuth Time Altitude Azimuth Time Altitude Azimuth
Cosmos 2322 4.3 16:09:40 10° SW 16:15:14 59° WNW 16:20:53 10° NNE
Cosmos 1939 Rocket 4.4 16:13:58 10° E 16:16:10 15° ENE 16:18:23 10° NNE
Cosmos 1869 3.7 16:12:44 10° SSW 16:16:45 72° W 16:20:51 10° N
Cosmos 2369 Rocket 4.1 16:16:13 10° NNE 16:17:30 11° NNE 16:18:48 10° NE
USA 281 4.2 16:12:30 10° E 16:17:37 25° NE 16:22:44 10° N
Cosmos 2184 Rocket 4.1 16:12:46 10° N 16:19:12 80° E 16:25:33 10° S
CORIOLIS 4.4 16:15:02 10° SE 16:20:10 46° ENE 16:25:21 10° N
Cosmos 1814 Rocket 4.2 16:17:04 10° SSW 16:22:25 83° WNW 16:27:46 10° NNE
Cosmos 1980 4.1 16:18:16 10° S 16:23:40 47° ESE 16:29:05 10° NE
Cosmos 2221 2.6 16:23:14 10° S 16:27:35 86° W 16:31:56 10° N
H-2A R/B 3.7 16:26:33 10° S 16:30:16 53° W 16:34:04 10° NNW
Cosmos 1500 Rocket 3.5 16:29:12 10° N 16:33:36 86° E 16:38:01 10° S
Abrixas rocket 2.3 16:30:56 10° WNW 16:33:40 57° SSW 16:36:23 10° SE
Meteor 2-2 Rocket 4.4 16:28:58 10° S 16:34:57 89° W 16:40:53 10° N
YAOGAN 6 2.7 16:31:26 10° S 16:35:06 84° WSW 16:38:46 10° NNW
CZ-4C R/B 3.6 16:35:26 10° N 16:39:00 62° WNW 16:42:36 10° SSW
Cosmos 405 Rocket 2.8 16:37:55 10° NNW 16:41:51 83° WSW 16:45:48 10° S
ADEOS Rocket 3.9 16:36:26 10° N 16:44:02 71° WNW 16:51:45 10° SSW
Cosmos 2297 4.5 16:39:07 10° N 16:44:07 31° NE 16:49:07 10° ESE
YAOGAN 1 4.1 16:44:13 14° E 16:45:32 16° ENE 16:48:08 10° NNE
Cosmos 405 4.2 16:42:34 10° SSW 16:45:54 42° WNW 16:49:15 10° N
Cosmos 389 Rocket 3.1 16:43:24 10° SSE 16:46:29 32° E 16:49:22 11° NNE
Cosmos 1943 Rocket 3.4 16:43:08 10° N 16:47:17 21° NE 16:50:05 15° E
H-2A R/B 3.6 16:46:07 10° S 16:50:21 50° W 16:54:29 10° NNW
Cosmos 44 4.4 16:45:54 10° NNW 16:50:29 29° NE 16:54:10 15° E
Cosmos 1933 4.3 16:47:49 10° SE 16:51:10 25° E 16:53:49 14° NE
BREEZE-M DEB (TANK) 1.7 16:49:46 10° WSW 16:51:56 64° NNW 16:53:03 24° ENE
Cosmos 1689 Rocket 4.3 16:53:23 12° ESE 16:53:23 12° ESE 16:53:47 10° SE
SL-16 R/B 3.1 16:48:48 10° SSE 16:53:31 28° ESE 16:56:52 16° NE
Cosmos 1867 4.2 16:48:44 10° S 16:53:38 36° ESE 16:57:17 17° ENE
USA 215 3.4 16:47:51 13° ENE 16:53:46 62° SE 17:00:13 10° SW
CZ-2C R/B 3.9 16:51:29 10° ESE 16:55:37 25° ENE 16:59:37 10° N
Cosmos 1743 Rocket 4.4 16:51:31 10° NNW 16:55:54 54° W 17:00:14 10° S
COSMO-SKYMED 1 3.3 16:52:10 10° NNE 16:56:03 31° E 16:59:55 10° SSE
Okean-O 3.7 16:53:21 10° ESE 16:56:53 24° ENE 17:00:24 10° NNE
Cosmos 2218 Rocket 4.4 16:52:57 10° N 16:58:40 38° ENE 17:04:19 10° SE
Cosmos 2150 Rocket 4.4 16:54:09 10° NNW 16:59:16 65° WSW 17:04:21 10° S
Cosmos 1818 3.8 16:55:22 10° NW 17:00:51 77° WSW 17:06:18 10° SSE
AQUARIUS 4.4 16:56:30 10° S 17:00:59 76° WSW 17:05:30 10° NNW
Cosmos 1606 2.7 17:00:14 10° S 17:04:04 62° E 17:07:56 10° NNE
Sich 1 2.9 17:00:42 10° N 17:05:07 72° E 17:09:28 10° SSE
BREEZE-M TANK 4.1 17:01:04 10° WNW 17:06:30 36° SW 17:09:35 10° SE
Okean O Rocket 2.1 17:03:43 10° S 17:08:01 61° WSW 17:12:22 10° NNW
Cosmos 2333 Rocket 3.8 17:04:21 10° WSW 17:09:20 31° NW 17:14:21 10° N
Helios 1A Rocket 3.7 17:07:32 19° ESE 17:09:29 28° ENE 17:12:56 10° N
Cosmos 2366 rocket 4.2 17:03:54 10° N 17:09:50 44° ENE 17:15:40 10° SSE
Nadezhda 1 Rocket 4.5 17:05:25 10° SSW 17:11:42 66° WNW 17:18:05 10° N
ISS -3.7 17:08:52 10° WSW 17:12:13 73° NNW 17:13:33 34° NE
Cosmos 1125 Rocket 3.8 17:08:54 10° NNW 17:14:05 69° WSW 17:19:15 10° S
COSMOS 2428 4.1 17:09:33 10° WSW 17:14:45 35° NW 17:20:00 10° NNE
Cosmos 1356 3.2 17:11:25 10° N 17:14:52 76° E 17:18:16 10° SSE
Feng Yun 1-1 Rocket 4.2 17:10:01 10° SSE 17:15:49 75° ENE 17:21:30 10° NNW
Cosmos 1805 Rocket 4.0 17:11:35 10° NNW 17:16:01 66° W 17:20:24 10° S
Meteor 1-20 Rocket 4.3 17:10:34 10° N 17:16:20 56° ENE 17:22:03 10° SSE
SAR-Lupe-4 3.8 17:15:58 30° NE 17:17:20 45° E 17:20:47 10° S
CZ-4B R/B 1.2 17:17:16 16° N 17:19:35 79° WNW 17:22:40 10° SSW
Cosmos 2278 Rocket 3.4 17:15:53 10° NW 17:21:16 46° WSW 17:26:38 10° S
Cosmos 1151 Rocket 3.2 17:17:14 10° SSE 17:21:19 45° E 17:23:25 25° NE
Cosmos 1666 Rocket 3.4 17:17:52 10° N 17:22:16 69° E 17:26:40 10° SSE
IRS-1C Rocket 4.0 17:20:01 10° SSE 17:25:15 70° ENE 17:30:32 10° N
USA 267 3.2 17:21:44 18° ESE 17:26:44 69° NNE 17:33:14 10° NW
Cosmos 1328 Rocket 3.7 17:23:07 10° SSE 17:27:13 45° E 17:28:37 33° NE
Lacrosse 5 rocket 2.2 17:25:23 10° S 17:28:07 26° SE 17:28:07 26° SE
ERS-2 2.4 17:29:45 13° N 17:32:54 67° WNW 17:36:31 10° SSW
Cosmos 2341 Rocket 4.1 17:28:05 10° N 17:34:22 78° W 17:40:40 10° S
SAR-Lupe-1 3.9 17:33:32 45° NNE 17:34:30 72° ESE 17:38:05 10° S
EO 1 Delta rocket 4.3 17:29:20 10° NNE 17:34:33 61° E 17:41:04 10° S
SL-24 R/B 3.7 17:32:45 29° NNE 17:34:41 64° E 17:38:25 10° S
CZ-2D R/B 3.0 17:31:10 10° SSE 17:34:57 73° ENE 17:38:47 10° N
Meteor 1-25 Rocket 4.1 17:29:31 10° N 17:35:08 75° ENE 17:40:48 10° SSE
CZ-4 R/B 1.3 17:38:23 53° ENE 17:38:23 53° ENE 17:42:08 10° N
Cosmos 2219 Rocket 4.3 17:36:21 10° W 17:40:37 21° NW 17:44:52 10° N
H-2A R/B 4.3 17:37:43 10° NNW 17:40:59 23° WNW 17:44:18 10° WSW
CZ-3B R/B 3.6 17:41:29 10° S 17:42:21 14° S 17:42:21 14° S
BREEZE-M DEB (TANK) 3.4 17:41:48 10° WSW 17:43:12 32° WSW 17:43:12 32° WSW
SKYMED 2 3.6 17:40:45 15° N 17:44:17 82° WNW 17:48:37 10° SSW
USA 81 4.0 17:40:39 10° N 17:45:58 86° W 17:51:15 10° S
SL-24 DEB 4.1 17:42:58 10° N 17:47:44 69° E 17:52:27 10° S
CREW DRAGON DEMO-1 DEB 4.0 17:45:45 10° WNW 17:47:44 37° NW 17:47:44 37° NW
Cosmos 2237 Rocket 3.2 17:44:11 10° SW 17:49:32 44° NW 17:54:26 12° NNE
Cosmos 2285 Rocket 3.9 17:43:10 10° NNW 17:49:37 80° ENE 17:55:58 10° SSE
Cosmos 1939 Rocket 3.6 17:46:56 10° S 17:50:40 50° W 17:54:30 10° NNW
Cosmos 1633 Rocket 3.3 17:48:36 10° NNW 17:52:59 68° W 17:57:17 10° S
H-2A R/B 2.1 17:52:25 44° ESE 17:53:41 55° ENE 17:58:46 10° N
Cosmos 773 Rocket 3.9 17:53:10 10° S 17:58:22 68° ESE 17:59:15 57° ENE
SL-8 Rocket 4.3 17:52:20 10° NNW 17:58:30 68° W 18:04:42 10° S
Cosmos 864 Rocket 4.5 17:52:12 10° N 17:58:35 85° W 18:04:51 10° S
USA 281 3.2 17:54:53 10° SSE 18:01:27 83° WSW 18:08:04 10° NNW
CSL-04 Rocket 3.6 18:01:44 56° ENE 18:01:44 56° ENE 18:06:42 10° N
Cosmos 2369 Rocket 2.8 17:57:42 10° NNW 18:02:10 40° NNE 18:02:10 40° NNE
Cosmos 2181 Rocket 4.3 17:58:26 10° SSW 18:04:50 68° W 18:11:14 10° N
MOS 1 Rocket 3.5 18:03:47 41° NNE 18:05:43 75° ESE 18:11:10 10° S
Cosmos 1821 Rocket 4.1 18:06:12 10° N 18:11:29 53° NE 18:11:29 53° NE
Cosmos 1241 Rocket 4.5 18:08:26 10° NW 18:15:06 88° ENE 18:17:23 45° SE
YAOGAN 1 3.0 18:21:23 59° W 18:21:23 59° W 18:25:27 10° NNW
SL-08 R/B 4.4 18:21:05 10° N 18:27:17 80° W 18:33:23 10° S
Cosmos 1943 Rocket 2.2 18:26:06 10° NNW 18:31:40 77° WSW 18:31:41 77° WSW
Cosmos 44 3.9 18:26:51 10° NW 18:32:04 59° WSW 18:32:39 56° SSW
Okean-O 3.9 18:29:01 10° SSW 18:33:08 39° W 18:37:19 10° NNW
CZ-2C R/B 4.0 18:30:21 10° S 18:35:17 44° W 18:40:02 10° NNW
ARGOS 4.1 18:38:30 37° NNW 18:38:30 37° NNW 18:41:44 10° NNW
USA 215 3.7 18:35:13 45° NNE 18:36:43 53° NNW 18:43:01 10° W
Cosmos 1867 4.5 18:31:59 10° WSW 18:37:09 43° NW 18:37:58 40° NNW
SL-16 R/B 2.9 18:31:52 10° SW 18:37:20 49° WNW 18:38:47 40° NNW
ISS -0.3 18:46:22 10° WNW 18:46:31 11° WNW 18:46:31 11° WNW
USA 267 4.1 19:09:07 40° SSW 19:09:59 42° SW 19:16:08 10° WNW
CZ-4 R/B 4.5 19:14:25 12° WNW 19:14:25 12° WNW 19:15:31 10° WNW
H-2A R/B 4.2 19:33:04 22° W 19:33:23 22° W 19:37:25 10° NW
Cosmos 2369 Rocket 4.5 19:42:02 10° NW 19:43:59 20° WNW 19:43:59 20° WNW
